This is the latest recevied weather packets stored in our database for station/object WB4ROX. If no packets are shown the sender has not sent any weather packets the latest 10 day(s).
| Time | Temp. | Humidity | Pressure | Rain* | Wind** | Luminosity | Snow |
|---|---|---|---|---|---|---|---|
| 1777941695 | 11.67° C | 50% | 1018.1 hPa | 0 mm | - | 0 W/m² | - |
| 1777941392 | 12.22° C | 50% | 1017.9 hPa | 0 mm | - | 0 W/m² | - |
| 1777941090 | 12.22° C | 50% | 1017.9 hPa | 0 mm | - | 0 W/m² | - |
| 1777940786 | 12.22° C | 50% | 1017.9 hPa | 0 mm | - | 1 W/m² | - |
| 1777940484 | 12.78° C | 50% | 1017.7 hPa | 0 mm | - | 2 W/m² | - |
| 1777940181 | 12.78° C | 49% | 1017.7 hPa | 0 mm | - | 3 W/m² | - |
| 1777939879 | 13.33° C | 48% | 1017.9 hPa | 0 mm | - | 5 W/m² | - |
| 1777939575 | 13.89° C | 47% | 1017.7 hPa | 0 mm | - | 7 W/m² | - |
| 1777939273 | 13.89° C | 46% | 1017.7 hPa | 0 mm | - | 12 W/m² | - |
| 1777938969 | 14.44° C | 45% | 1017.9 hPa | 0 mm | - | 16 W/m² | - |
| 1777938666 | 15° C | 44% | 1017.8 hPa | 0 mm | - | 20 W/m² | - |
| 1777938363 | 15° C | 44% | 1017.8 hPa | 0 mm | - | 26 W/m² | - |
| 1777938060 | 16.11° C | 42% | 1017.5 hPa | 0 mm | - | 34 W/m² | - |
| 1777937755 | 16.11° C | 41% | 1017.4 hPa | 0 mm | - | 44 W/m² | - |
| 1777937452 | 16.11° C | 41% | 1017.8 hPa | 0 mm | - | 52 W/m² | - |
| 1777937149 | 16.11° C | 42% | 1017.6 hPa | 0 mm | - | 62 W/m² | - |
| 1777936847 | 16.11° C | 42% | 1017.5 hPa | 0 mm | - | 70 W/m² | - |
| 1777936543 | 16.11° C | 42% | 1017.4 hPa | 0 mm | - | 82 W/m² | - |
| 1777936240 | 16.67° C | 41% | 1017.6 hPa | 0 mm | - | 77 W/m² | - |
| 1777935936 | 16.11° C | 43% | 1017.5 hPa | 0 mm | - | 111 W/m² | - |
| 1777935635 | 16.11° C | 43% | 1017.7 hPa | 0 mm | - | 107 W/m² | - |
| 1777935332 | 16.11° C | 43% | 1017.6 hPa | 0 mm | - | 62 W/m² | - |
| 1777935029 | 16.67° C | 42% | 1017.5 hPa | 0 mm | - | 102 W/m² | - |
| 1777934725 | 16.11° C | 43% | 1017.4 hPa | 0 mm | - | 171 W/m² | - |
| 1777934423 | 15.56° C | 45% | 1017.6 hPa | 0 mm | - | 119 W/m² | - |
* Rain latest hour (hover to see other rain measurements)
** Current wind speed in m/s (hover to see current wind gust speed)